User: anonymous   Login
Location: Unspecified
(0.0000°N, 0.0000°E)
Time: 12:34:57
(UTC+00:00)
Language:

COSMOS 2484 - Orbit

View from above orbital plane
View from above orbital plane
View from above satellite
View from above satellite

Ground track
Ground track

The orbit data is extracted from the following two-line orbital elements,

1 39059U 13001C   18171.67340997  .00000050  00000-0  29119-3 0  9994
2 39059  82.5031 236.4631 0023651 281.6785  78.1641 12.42894266246201
Epoch (UTC): 20 June 2018 16:09:42
Eccentricity: 0.0023651
inclination: 82.5031°
perigee height: 1476 km
apogee height: 1513 km
right ascension of ascending node: 236.4631°
argument of perigee: 281.6785°
revolutions per day: 12.42894266
mean anomaly at epoch: 78.1641°
orbit number at epoch: 24620

The dashed part of the orbit path shows where the satellite is in the earth's shadow,  

DLR